Location: S�deilles
(46.7500°N, 6.9329°E)
Time: 07:37:56
(UTC+00:00)

Cosmos 1378 - Pass Details

Date: 08 March 2021
Orbit: 489 x 501 km, 82.5° (Epoch: 14 April)

Event Time Altitude Azimuth Distance (km) Brightness Sun altitude
Rises 18:13:20 0° 1° (N) 2,598 6.8 -8.5°
Reaches altitude 10° 18:15:43 10° 14° (NNE) 1,707 5.7 -8.9°
Maximum altitude 18:18:56 27° 73° (ENE) 989 4.1 -9.5°
Drops below altitude 10° 18:22:07 10° 133° (SE) 1,688 5.3 -10.0°
Enters shadow 18:22:53 - 138° (SE) 1,970 5.7 -10.2°
